Location: Banios
(43.0451°N, 0.2335°E)
Time: 13:42:08
(UTC+00:00)

Cosmos 2237 Rocket - Pass Details

Date: 25 January 2021
Orbit: 833 x 851 km, 71.0° (Epoch: 25 February)

Event Time Altitude Azimuth Distance (km) Brightness Sun altitude
Exits shadow 05:51:44 23° 261° (W) 1,707 3.2 -16.3°
Maximum altitude 05:54:14 33° 305° (NW) 1,383 2.8 -15.8°
Drops below altitude 10° 05:59:21 10° 9° (N) 2,483 4.6 -14.9°
Sets 06:02:04 0° 19° (NNE) 3,424 5.4 -14.4°
